{"data":{"norad_id":81343,"intl_designator":"","name":"UNKNOWN","alt_names":[],"object_type":"UNKNOWN","status":"UNKNOWN","operator":null,"country":null,"launch_date":null,"launch_site_code":null,"launch_vehicle":null,"mission":null,"orbit_class":"UNKNOWN","rcs_meters":null,"size_class":null,"mass_kg":null,"dimensions":null,"purposes":[],"wikipedia_slug":null,"has_3d_model":false,"image_url":null,"decayed_at":null,"tle_current":{"epoch":"2026-09-13T10:45:51.111936Z","epoch_age_seconds":623791,"freshness":"AGED","line1":"1 81343U          26256.44850824  .00005309  00000+0  35164-3 0  9993","line2":"2 81343  85.8800  52.0434 0003539  35.3476 324.7993 15.07098721495652","mean_motion":15.07098721,"eccentricity":0.0003539,"inclination_deg":85.88,"raan_deg":52.0434,"arg_perigee_deg":35.3476,"mean_anomaly_deg":324.7993,"bstar":0.00035164,"rev_number":49565,"period_min":95.547821780681,"perigee_km":542.62078283258,"apogee_km":547.52102938852,"semimajor_km":6923.2079061105,"source":"CELESTRAK","updated_at":"2026-09-20T09:00:32.386012Z"}}}